| time (UTC) | temp F | wind direction | speed MPH | gust MPH | rain 1hr in | rain 24hr in | rain mn in | humidity % | barometer mb |
| 20260901195024 | 100 | 336 | 4.0 | 15.0 | 0.00 | 0.00 | 0.00 | 31 | 1015.1 |
| 20260901194550 | 100 | 205 | 4.0 | 12.0 | 0.00 | 0.00 | 0.00 | 31 | 1015.2 |
| 20260901194028 | 99 | 301 | 2.0 | 15.0 | 0.00 | 0.00 | 0.00 | 31 | 1015.2 |
| 20260901193524 | 99 | 76 | 5.0 | 15.0 | 0.00 | 0.00 | 0.00 | 31 | 1015.2 |
| 20260901193048 | 99 | 196 | 4.0 | 15.0 | 0.00 | 0.00 | 0.00 | 30 | 1015.3 |
| 20260901192525 | 99 | 105 | 3.0 | 15.0 | 0.00 | 0.00 | 0.00 | 30 | 1015.3 |
| 20260901192023 | 99 | 152 | 4.0 | 15.0 | 0.00 | 0.00 | 0.00 | 33 | 1015.4 |
| 20260901191600 | 99 | 192 | 3.0 | 15.0 | 0.00 | 0.00 | 0.00 | 34 | 1015.4 |
| 20260901191025 | 99 | 92 | 2.0 | 10.0 | 0.00 | 0.00 | 0.00 | 35 | 1015.4 |
| 20260901190528 | 99 | 176 | 3.0 | 10.0 | 0.00 | 0.00 | 0.00 | 35 | 1015.5 |
| 20260901190048 | 99 | 158 | 4.0 | 10.0 | 0.00 | 0.00 | 0.00 | 37 | 1015.6 |
| 20260901185528 | 99 | 293 | 2.0 | 11.0 | 0.00 | 0.00 | 0.00 | 37 | 1015.5 |
| 20260901185027 | 99 | 290 | 2.0 | 11.0 | 0.00 | 0.00 | 0.00 | 37 | 1015.6 |
| 20260901184547 | 99 | 178 | 2.0 | 10.0 | 0.00 | 0.00 | 0.00 | 36 | 1015.6 |
| 20260901184026 | 99 | 308 | 1.0 | 10.0 | 0.00 | 0.00 | 0.00 | 36 | 1015.6 |
| 20260901183527 | 98 | 278 | 4.0 | 13.0 | 0.00 | 0.00 | 0.00 | 36 | 1015.7 |
| 20260901183051 | 98 | 150 | 3.0 | 13.0 | 0.00 | 0.00 | 0.00 | 36 | 1015.8 |
| 20260901182524 | 98 | 165 | 4.0 | 13.0 | 0.00 | 0.00 | 0.00 | 36 | 1015.8 |
| 20260901182027 | 98 | 134 | 3.0 | 10.0 | 0.00 | 0.00 | 0.00 | 38 | 1015.9 |
| 20260901181558 | 97 | 227 | 1.0 | 10.0 | 0.00 | 0.00 | 0.00 | 38 | 1016.0 |
| 20260901181025 | 98 | 259 | 2.0 | 7.0 | 0.00 | 0.00 | 0.00 | 38 | 1016.1 |
| 20260901180524 | 98 | 301 | 2.0 | 10.0 | 0.00 | 0.00 | 0.00 | 39 | 1016.1 |
| 20260901180046 | 97 | 194 | 3.0 | 11.0 | 0.00 | 0.00 | 0.00 | 40 | 1016.2 |
| 20260901175529 | 96 | 221 | 2.0 | 12.0 | 0.00 | 0.00 | 0.00 | 40 | 1016.3 |
| 20260901175027 | 96 | 135 | 2.0 | 12.0 | 0.00 | 0.00 | 0.00 | 40 | 1016.3 |
| 20260901174548 | 97 | 286 | 2.0 | 10.0 | 0.00 | 0.00 | 0.00 | 38 | 1016.4 |
| 20260901174027 | 97 | 0 | 3.0 | 10.0 | 0.00 | 0.00 | 0.00 | 39 | 1016.4 |
| 20260901173528 | 96 | 0 | 2.0 | 9.0 | 0.00 | 0.00 | 0.00 | 40 | 1016.6 |
| 20260901173059 | 96 | 113 | 2.0 | 12.0 | 0.00 | 0.00 | 0.00 | 40 | 1016.6 |
| 20260901172525 | 96 | 275 | 1.0 | 12.0 | 0.00 | 0.00 | 0.00 | 39 | 1016.6 |
| 20260901172030 | 97 | 241 | 1.0 | 8.0 | 0.00 | 0.00 | 0.00 | 41 | 1016.7 |
| 20260901171600 | 96 | 142 | 0.0 | 12.0 | 0.00 | 0.00 | 0.00 | 40 | 1016.8 |
| 20260901171024 | 96 | 280 | 1.0 | 12.0 | 0.00 | 0.00 | 0.00 | 40 | 1016.8 |
| 20260901170527 | 95 | 314 | 2.0 | 11.0 | 0.00 | 0.00 | 0.00 | 40 | 1016.8 |
| 20260901170047 | 95 | 0 | 1.0 | 11.0 | 0.00 | 0.00 | 0.00 | 40 | 1016.8 |
| 20260901165529 | 95 | 144 | 2.0 | 8.0 | 0.00 | 0.00 | 0.00 | 43 | 1016.8 |
| 20260901165024 | 95 | 171 | 1.0 | 13.0 | 0.00 | 0.00 | 0.00 | 42 | 1016.8 |
| 20260901164546 | 94 | 0 | 2.0 | 13.0 | 0.00 | 0.00 | 0.00 | 42 | 1016.8 |
| 20260901164024 | 93 | 0 | 3.0 | 13.0 | 0.00 | 0.00 | 0.00 | 44 | 1016.8 |
| 20260901163531 | 93 | 178 | 4.0 | 11.0 | 0.00 | 0.00 | 0.00 | 43 | 1016.8 |
| 20260901163052 | 93 | 182 | 2.0 | 12.0 | 0.00 | 0.00 | 0.00 | 44 | 1016.8 |
| 20260901162526 | 92 | 341 | 2.0 | 12.0 | 0.00 | 0.00 | 0.00 | 45 | 1016.9 |
| 20260901162030 | 92 | 139 | 2.0 | 12.0 | 0.00 | 0.00 | 0.00 | 46 | 1016.9 |
| 20260901161605 | 92 | 178 | 3.0 | 12.0 | 0.00 | 0.00 | 0.00 | 46 | 1016.9 |
| 20260901161028 | 91 | 42 | 1.0 | 13.0 | 0.00 | 0.00 | 0.00 | 47 | 1017.0 |
| 20260901160531 | 91 | 155 | 2.0 | 13.0 | 0.00 | 0.00 | 0.00 | 46 | 1016.9 |
| 20260901160050 | 90 | 167 | 4.0 | 10.0 | 0.00 | 0.00 | 0.00 | 47 | 1017.0 |
| 20260901155524 | 90 | 0 | 2.0 | 12.0 | 0.00 | 0.00 | 0.00 | 48 | 1017.1 |
| 20260901155027 | 90 | 163 | 5.0 | 12.0 | 0.00 | 0.00 | 0.00 | 48 | 1017.1 |
| 20260901154555 | 90 | 183 | 2.0 | 10.0 | 0.00 | 0.00 | 0.00 | 48 | 1017.0 |
| 20260901154027 | 89 | 0 | 2.0 | 10.0 | 0.00 | 0.00 | 0.00 | 50 | 1017.1 |
| 20260901153527 | 89 | 238 | 1.0 | 12.0 | 0.00 | 0.00 | 0.00 | 51 | 1017.1 |
| 20260901153050 | 88 | 163 | 2.0 | 12.0 | 0.00 | 0.00 | 0.00 | 53 | 1017.2 |
| 20260901152524 | 87 | 169 | 2.0 | 10.0 | 0.00 | 0.00 | 0.00 | 53 | 1017.2 |
| 20260901152028 | 87 | 120 | 2.0 | 10.0 | 0.00 | 0.00 | 0.00 | 55 | 1017.1 |
| 20260901151542 | 86 | 164 | 2.0 | 8.0 | 0.00 | 0.00 | 0.00 | 54 | 1017.1 |
| 20260901151030 | 86 | 169 | 3.0 | 10.0 | 0.00 | 0.00 | 0.00 | 54 | 1017.1 |
| 20260901150527 | 85 | 0 | 3.0 | 10.0 | 0.00 | 0.00 | 0.00 | 55 | 1017.1 |
| 20260901150052 | 85 | 163 | 2.0 | 10.0 | 0.00 | 0.00 | 0.00 | 57 | 1017.0 |
| 20260901145527 | 84 | 171 | 2.0 | 9.0 | 0.00 | 0.00 | 0.00 | 56 | 1017.1 |
| 20260901145025 | 84 | 170 | 2.0 | 10.0 | 0.00 | 0.00 | 0.00 | 57 | 1017.1 |
| 20260901144550 | 83 | 173 | 2.0 | 10.0 | 0.00 | 0.00 | 0.00 | 58 | 1017.1 |
| 20260901144025 | 83 | 200 | 3.0 | 11.0 | 0.00 | 0.00 | 0.00 | 59 | 1017.0 |
| 20260901143525 | 83 | 165 | 3.0 | 11.0 | 0.00 | 0.00 | 0.00 | 59 | 1017.1 |
| 20260901143048 | 82 | 170 | 3.0 | 7.0 | 0.00 | 0.00 | 0.00 | 60 | 1017.2 |
| 20260901142524 | 82 | 140 | 1.0 | 9.0 | 0.00 | 0.00 | 0.00 | 61 | 1017.2 |
| 20260901142027 | 81 | 169 | 3.0 | 9.0 | 0.00 | 0.00 | 0.00 | 62 | 1017.2 |
| 20260901141548 | 81 | 0 | 1.0 | 7.0 | 0.00 | 0.00 | 0.00 | 62 | 1017.1 |
| 20260901141029 | 80 | 160 | 3.0 | 8.0 | 0.00 | 0.00 | 0.00 | 63 | 1017.1 |
| 20260901140524 | 80 | 140 | 3.0 | 8.0 | 0.00 | 0.00 | 0.00 | 62 | 1017.1 |
| 20260901140049 | 79 | 150 | 3.0 | 8.0 | 0.00 | 0.00 | 0.00 | 63 | 1017.2 |
| 20260901135524 | 79 | 0 | 2.0 | 6.0 | 0.00 | 0.00 | 0.00 | 64 | 1017.4 |
| 20260901135025 | 79 | 159 | 0.0 | 6.0 | 0.00 | 0.00 | 0.00 | 65 | 1017.4 |
| 20260901134548 | 78 | 199 | 1.0 | 6.0 | 0.00 | 0.00 | 0.00 | 65 | 1017.5 |
| 20260901134024 | 78 | 162 | 3.0 | 7.0 | 0.00 | 0.00 | 0.00 | 66 | 1017.4 |
| 20260901133524 | 78 | 168 | 1.0 | 7.0 | 0.00 | 0.00 | 0.00 | 66 | 1017.3 |
| 20260901133046 | 78 | 159 | 2.0 | 7.0 | 0.00 | 0.00 | 0.00 | 66 | 1017.4 |
| 20260901132525 | 78 | 153 | 1.0 | 7.0 | 0.00 | 0.00 | 0.00 | 66 | 1017.3 |
| 20260901132024 | 77 | 0 | 0.0 | 7.0 | 0.00 | 0.00 | 0.00 | 66 | 1017.2 |
| 20260901131546 | 77 | 180 | 3.0 | 7.0 | 0.00 | 0.00 | 0.00 | 66 | 1017.2 |
| 20260901131028 | 77 | 189 | 2.0 | 6.0 | 0.00 | 0.00 | 0.00 | 66 | 1017.2 |
| 20260901130527 | 77 | 164 | 1.0 | 5.0 | 0.00 | 0.00 | 0.00 | 66 | 1017.2 |
| 20260901130058 | 77 | 178 | 1.0 | 6.0 | 0.00 | 0.00 | 0.00 | 67 | 1017.1 |
| 20260901125525 | 77 | 0 | 1.0 | 6.0 | 0.00 | 0.00 | 0.00 | 66 | 1017.1 |
| 20260901125025 | 77 | 163 | 2.0 | 6.0 | 0.00 | 0.00 | 0.00 | 65 | 1017.0 |
| 20260901124547 | 77 | 166 | 1.0 | 6.0 | 0.00 | 0.00 | 0.00 | 65 | 1017.0 |
| 20260901124024 | 77 | 0 | 1.0 | 5.0 | 0.00 | 0.00 | 0.00 | 65 | 1016.8 |
| 20260901123526 | 77 | 0 | 1.0 | 5.0 | 0.00 | 0.00 | 0.00 | 65 | 1016.8 |
| 20260901123047 | 77 | 172 | 0.0 | 3.0 | 0.00 | 0.00 | 0.00 | 64 | 1016.8 |
| 20260901122526 | 77 | 0 | 0.0 | 4.0 | 0.00 | 0.00 | 0.00 | 64 | 1016.7 |
| 20260901122025 | 77 | 173 | 1.0 | 6.0 | 0.00 | 0.00 | 0.00 | 63 | 1016.7 |
| 20260901121543 | 77 | 188 | 1.0 | 6.0 | 0.00 | 0.00 | 0.00 | 63 | 1016.6 |
| 20260901121023 | 77 | 0 | 0.0 | 4.0 | 0.00 | 0.00 | 0.00 | 63 | 1016.6 |
| 20260901120523 | 77 | 0 | 0.0 | 4.0 | 0.00 | 0.00 | 0.00 | 63 | 1016.5 |
| 20260901120050 | 77 | 0 | 0.0 | 3.0 | 0.00 | 0.00 | 0.00 | 63 | 1016.4 |
| 20260901115529 | 77 | 0 | 0.0 | 3.0 | 0.00 | 0.00 | 0.00 | 63 | 1016.4 |
| 20260901115024 | 78 | 0 | 0.0 | 4.0 | 0.00 | 0.00 | 0.00 | 62 | 1016.4 |
| 20260901114609 | 78 | 0 | 0.0 | 4.0 | 0.00 | 0.00 | 0.00 | 62 | 1016.3 |
| 20260901114028 | 78 | 0 | 0.0 | 4.0 | 0.00 | 0.00 | 0.00 | 62 | 1016.3 |
| 20260901113528 | 78 | 0 | 0.0 | 4.0 | 0.00 | 0.00 | 0.00 | 61 | 1016.4 |
| 20260901113043 | 78 | 0 | 0.0 | 7.0 | 0.00 | 0.00 | 0.00 | 61 | 1016.3 |
| 20260901112525 | 78 | 0 | 1.0 | 7.0 | 0.00 | 0.00 | 0.00 | 61 | 1016.3 |
| 20260901112024 | 78 | 0 | 1.0 | 5.0 | 0.00 | 0.00 | 0.00 | 62 | 1016.3 |
| 20260901111547 | 78 | 171 | 0.0 | 4.0 | 0.00 | 0.00 | 0.00 | 61 | 1016.2 |
| 20260901111033 | 78 | 0 | 0.0 | 4.0 | 0.00 | 0.00 | 0.00 | 61 | 1016.2 |
| 20260901110526 | 78 | 0 | 0.0 | 8.0 | 0.00 | 0.00 | 0.00 | 61 | 1016.1 |
| 20260901110051 | 78 | 0 | 0.0 | 8.0 | 0.00 | 0.00 | 0.00 | 61 | 1016.2 |
| 20260901105524 | 78 | 0 | 0.0 | 4.0 | 0.00 | 0.00 | 0.00 | 60 | 1016.2 |
| 20260901105027 | 78 | 0 | 0.0 | 4.0 | 0.00 | 0.00 | 0.00 | 61 | 1016.1 |
| 20260901104546 | 78 | 0 | 0.0 | 5.0 | 0.00 | 0.00 | 0.00 | 60 | 1016.1 |
| 20260901104023 | 78 | 185 | 0.0 | 6.0 | 0.00 | 0.00 | 0.00 | 60 | 1016.1 |
| 20260901103523 | 78 | 0 | 1.0 | 6.0 | 0.00 | 0.00 | 0.00 | 60 | 1016.1 |
| 20260901103042 | 78 | 0 | 0.0 | 5.0 | 0.00 | 0.00 | 0.00 | 60 | 1016.0 |
| 20260901102525 | 79 | 0 | 1.0 | 5.0 | 0.00 | 0.00 | 0.00 | 60 | 1016.0 |
| 20260901102023 | 79 | 170 | 1.0 | 5.0 | 0.00 | 0.00 | 0.00 | 59 | 1015.9 |
| 20260901101543 | 79 | 156 | 0.0 | 5.0 | 0.00 | 0.00 | 0.00 | 59 | 1015.9 |
| 20260901101025 | 79 | 0 | 0.0 | 5.0 | 0.00 | 0.00 | 0.00 | 59 | 1015.9 |
| 20260901100531 | 80 | 0 | 1.0 | 6.0 | 0.00 | 0.00 | 0.00 | 58 | 1015.8 |
| 20260901100044 | 80 | 167 | 1.0 | 6.0 | 0.00 | 0.00 | 0.00 | 58 | 1015.8 |
| 20260901095523 | 80 | 0 | 1.0 | 6.0 | 0.00 | 0.00 | 0.00 | 57 | 1015.8 |
| 20260901095023 | 80 | 188 | 1.0 | 6.0 | 0.00 | 0.00 | 0.00 | 57 | 1015.7 |
| 20260901094544 | 80 | 0 | 0.0 | 9.0 | 0.00 | 0.00 | 0.00 | 57 | 1015.8 |
| 20260901094027 | 80 | 0 | 1.0 | 9.0 | 0.00 | 0.00 | 0.00 | 57 | 1015.8 |
| 20260901093522 | 80 | 0 | 2.0 | 9.0 | 0.00 | 0.00 | 0.00 | 57 | 1015.6 |
| 20260901093050 | 80 | 159 | 2.0 | 6.0 | 0.00 | 0.00 | 0.00 | 58 | 1015.7 |
| 20260901092523 | 80 | 194 | 0.0 | 7.0 | 0.00 | 0.00 | 0.00 | 58 | 1015.5 |
| 20260901092031 | 80 | 0 | 1.0 | 7.0 | 0.00 | 0.00 | 0.00 | 58 | 1015.4 |
| 20260901091545 | 80 | 0 | 0.0 | 7.0 | 0.00 | 0.00 | 0.00 | 58 | 1015.4 |
| 20260901091024 | 80 | 0 | 0.0 | 6.0 | 0.00 | 0.00 | 0.00 | 58 | 1015.4 |
| 20260901090526 | 80 | 0 | 0.0 | 7.0 | 0.00 | 0.00 | 0.00 | 58 | 1015.4 |
| 20260901090050 | 80 | 0 | 1.0 | 7.0 | 0.00 | 0.00 | 0.00 | 58 | 1015.4 |
| 20260901085525 | 79 | 288 | 0.0 | 5.0 | 0.00 | 0.00 | 0.00 | 59 | 1015.3 |
| 20260901085023 | 79 | 229 | 0.0 | 4.0 | 0.00 | 0.00 | 0.00 | 59 | 1015.3 |
| 20260901084548 | 79 | 0 | 0.0 | 4.0 | 0.00 | 0.00 | 0.00 | 59 | 1015.4 |
| 20260901084029 | 79 | 0 | 0.0 | 4.0 | 0.00 | 0.00 | 0.00 | 59 | 1015.4 |
| 20260901083525 | 79 | 0 | 0.0 | 3.0 | 0.00 | 0.00 | 0.00 | 59 | 1015.3 |
| 20260901083049 | 79 | 0 | 0.0 | 3.0 | 0.00 | 0.00 | 0.00 | 59 | 1015.3 |
| 20260901082526 | 80 | 0 | 0.0 | 6.0 | 0.00 | 0.00 | 0.00 | 58 | 1015.1 |
| 20260901082028 | 80 | 0 | 0.0 | 6.0 | 0.00 | 0.00 | 0.00 | 58 | 1015.1 |
| 20260901081548 | 80 | 170 | 0.0 | 4.0 | 0.00 | 0.00 | 0.00 | 57 | 1015.1 |
| 20260901081025 | 80 | 0 | 0.0 | 2.0 | 0.00 | 0.00 | 0.00 | 57 | 1015.1 |
| 20260901080523 | 80 | 0 | 0.0 | 6.0 | 0.00 | 0.00 | 0.00 | 56 | 1015.1 |
| 20260901080049 | 81 | 0 | 0.0 | 6.0 | 0.00 | 0.00 | 0.00 | 55 | 1015.2 |
| 20260901075524 | 81 | 0 | 0.0 | 4.0 | 0.00 | 0.00 | 0.00 | 55 | 1015.2 |
| 20260901075027 | 81 | 0 | 0.0 | 6.0 | 0.00 | 0.00 | 0.00 | 54 | 1015.2 |
| 20260901074548 | 82 | 0 | 0.0 | 6.0 | 0.00 | 0.00 | 0.00 | 54 | 1015.1 |
| 20260901074025 | 82 | 129 | 0.0 | 6.0 | 0.00 | 0.00 | 0.00 | 54 | 1015.2 |
| 20260901073523 | 82 | 0 | 1.0 | 7.0 | 0.00 | 0.00 | 0.00 | 53 | 1015.2 |
| 20260901073046 | 82 | 178 | 1.0 | 7.0 | 0.00 | 0.00 | 0.00 | 53 | 1015.2 |
| 20260901072528 | 82 | 136 | 0.0 | 3.0 | 0.00 | 0.00 | 0.00 | 53 | 1015.1 |
| 20260901072023 | 82 | 0 | 0.0 | 5.0 | 0.00 | 0.00 | 0.00 | 53 | 1015.2 |
| 20260901071552 | 82 | 0 | 0.0 | 5.0 | 0.00 | 0.00 | 0.00 | 53 | 1015.2 |
| 20260901071024 | 82 | 0 | 0.0 | 6.0 | 0.00 | 0.00 | 0.00 | 52 | 1015.2 |
| 20260901070525 | 82 | 142 | 0.0 | 6.0 | 0.00 | 0.00 | 0.00 | 52 | 1015.3 |
| 20260901065525 | 82 | 184 | 1.0 | 11.0 | 0.00 | 0.00 | 0.00 | 52 | 1015.2 |
| 20260901065027 | 83 | 253 | 0.0 | 9.0 | 0.00 | 0.00 | 0.00 | 52 | 1015.3 |
| 20260901064546 | 83 | 0 | 0.0 | 9.0 | 0.00 | 0.00 | 0.00 | 51 | 1015.2 |
| 20260901064025 | 83 | 0 | 0.0 | 9.0 | 0.00 | 0.00 | 0.00 | 51 | 1015.3 |
| 20260901063526 | 83 | 181 | 1.0 | 8.0 | 0.00 | 0.00 | 0.00 | 51 | 1015.3 |
| 20260901063050 | 83 | 167 | 2.0 | 13.0 | 0.00 | 0.00 | 0.00 | 51 | 1015.2 |
| 20260901062524 | 82 | 222 | 3.0 | 13.0 | 0.00 | 0.00 | 0.00 | 51 | 1015.2 |
| 20260901062028 | 82 | 184 | 3.0 | 9.0 | 0.00 | 0.00 | 0.00 | 53 | 1015.3 |
| 20260901061551 | 81 | 165 | 2.0 | 9.0 | 0.00 | 0.00 | 0.00 | 54 | 1015.3 |
| 20260901061024 | 81 | 159 | 2.0 | 6.0 | 0.00 | 0.00 | 0.00 | 54 | 1015.2 |
| 20260901060524 | 81 | 160 | 2.0 | 6.0 | 0.00 | 0.00 | 0.00 | 54 | 1015.4 |
| 20260901060044 | 81 | 173 | 2.0 | 6.0 | 0.00 | 0.00 | 0.00 | 54 | 1015.3 |
| 20260901055525 | 81 | 163 | 1.0 | 5.0 | 0.00 | 0.00 | 0.00 | 55 | 1015.4 |
| 20260901055024 | 81 | 186 | 1.0 | 5.0 | 0.00 | 0.00 | 0.00 | 54 | 1015.4 |
| 20260901054549 | 81 | 167 | 0.0 | 5.0 | 0.00 | 0.00 | 0.00 | 55 | 1015.3 |
| 20260901054025 | 81 | 0 | 0.0 | 3.0 | 0.00 | 0.00 | 0.00 | 55 | 1015.3 |
| 20260901053526 | 81 | 0 | 0.0 | 4.0 | 0.00 | 0.00 | 0.00 | 54 | 1015.3 |
| 20260901053053 | 81 | 0 | 0.0 | 4.0 | 0.00 | 0.00 | 0.00 | 54 | 1015.3 |
| 20260901052523 | 81 | 163 | 0.0 | 5.0 | 0.00 | 0.00 | 0.00 | 54 | 1015.3 |
| 20260901052024 | 81 | 0 | 0.0 | 5.0 | 0.00 | 0.00 | 0.00 | 54 | 1015.3 |
| 20260901051544 | 81 | 0 | 0.0 | 3.0 | 0.00 | 0.00 | 0.00 | 54 | 1015.3 |
| 20260901051026 | 81 | 0 | 0.0 | 4.0 | 0.00 | 0.00 | 0.00 | 54 | 1015.4 |
| 20260901050525 | 82 | 0 | 0.0 | 4.0 | 0.00 | 0.00 | 0.00 | 53 | 1015.4 |
| 20260901050053 | 82 | 171 | 0.0 | 4.0 | 0.00 | 0.00 | 0.00 | 53 | 1015.4 |
| 20260901045523 | 82 | 172 | 0.0 | 2.0 | 0.00 | 0.00 | 0.00 | 53 | 1015.4 |
| 20260901045022 | 82 | 0 | 0.0 | 2.0 | 0.00 | 0.00 | 0.00 | 52 | 1015.4 |
| 20260901044556 | 83 | 0 | 0.0 | 2.0 | 0.00 | 0.00 | 0.00 | 52 | 1015.4 |
| 20260901044025 | 83 | 0 | 0.0 | 3.0 | 0.00 | 0.00 | 0.00 | 51 | 1015.4 |
| 20260901043527 | 83 | 0 | 0.0 | 3.0 | 0.00 | 0.00 | 0.00 | 51 | 1015.4 |
| 20260901043048 | 83 | 0 | 0.0 | 3.0 | 0.00 | 0.00 | 0.00 | 51 | 1015.3 |
| 20260901042527 | 84 | 0 | 0.0 | 3.0 | 0.00 | 0.00 | 0.00 | 50 | 1015.3 |
| 20260901042023 | 84 | 0 | 0.0 | 2.0 | 0.00 | 0.00 | 0.00 | 50 | 1015.2 |
| 20260901041544 | 84 | 0 | 0.0 | 5.0 | 0.00 | 0.00 | 0.00 | 50 | 1015.2 |
| 20260901041025 | 84 | 0 | 0.0 | 5.0 | 0.00 | 0.00 | 0.00 | 49 | 1015.2 |
| 20260901040524 | 85 | 0 | 1.0 | 4.0 | 0.00 | 0.00 | 0.00 | 49 | 1015.2 |
| 20260901040053 | 85 | 0 | 0.0 | 7.0 | 0.00 | 0.00 | 0.00 | 49 | 1015.1 |
| 20260901035524 | 85 | 0 | 1.0 | 7.0 | 0.00 | 0.00 | 0.00 | 48 | 1015.1 |
| 20260901035024 | 85 | 144 | 2.0 | 7.0 | 0.00 | 0.00 | 0.00 | 48 | 1015.1 |
| 20260901034549 | 86 | 0 | 1.0 | 6.0 | 0.00 | 0.00 | 0.00 | 48 | 1015.1 |
| 20260901034028 | 86 | 153 | 1.0 | 6.0 | 0.00 | 0.00 | 0.00 | 48 | 1015.1 |
| 20260901033524 | 86 | 176 | 1.0 | 6.0 | 0.00 | 0.00 | 0.00 | 47 | 1015.0 |
| 20260901033100 | 86 | 0 | 1.0 | 9.0 | 0.00 | 0.00 | 0.00 | 47 | 1014.9 |
| 20260901032526 | 86 | 0 | 2.0 | 9.0 | 0.00 | 0.00 | 0.00 | 48 | 1014.8 |
| 20260901032027 | 86 | 157 | 1.0 | 7.0 | 0.00 | 0.00 | 0.00 | 48 | 1014.8 |
| 20260901031545 | 87 | 0 | 2.0 | 8.0 | 0.00 | 0.00 | 0.00 | 47 | 1014.8 |
| 20260901031023 | 87 | 161 | 1.0 | 8.0 | 0.00 | 0.00 | 0.00 | 47 | 1014.8 |
| 20260901030524 | 87 | 177 | 0.0 | 8.0 | 0.00 | 0.00 | 0.00 | 47 | 1014.7 |
| 20260901030101 | 87 | 165 | 1.0 | 8.0 | 0.00 | 0.00 | 0.00 | 46 | 1014.7 |
| 20260901025525 | 87 | 174 | 0.0 | 9.0 | 0.00 | 0.00 | 0.00 | 46 | 1014.8 |
| 20260901025024 | 87 | 139 | 2.0 | 9.0 | 0.00 | 0.00 | 0.00 | 47 | 1014.8 |
| 20260901024551 | 87 | 157 | 0.0 | 6.0 | 0.00 | 0.00 | 0.00 | 47 | 1014.8 |
| 20260901024025 | 87 | 0 | 0.0 | 5.0 | 0.00 | 0.00 | 0.00 | 47 | 1014.7 |
| 20260901023536 | 87 | 162 | 0.0 | 5.0 | 0.00 | 0.00 | 0.00 | 48 | 1014.6 |
| 20260901023049 | 87 | 0 | 1.0 | 5.0 | 0.00 | 0.00 | 0.00 | 48 | 1014.6 |
| 20260901022524 | 88 | 153 | 1.0 | 5.0 | 0.00 | 0.00 | 0.00 | 48 | 1014.6 |
| 20260901022025 | 88 | 164 | 1.0 | 6.0 | 0.00 | 0.00 | 0.00 | 49 | 1014.5 |
| 20260901021558 | 88 | 121 | 1.0 | 6.0 | 0.00 | 0.00 | 0.00 | 48 | 1014.4 |
| 20260901021028 | 88 | 120 | 2.0 | 6.0 | 0.00 | 0.00 | 0.00 | 49 | 1014.4 |
| 20260901020523 | 88 | 164 | 1.0 | 8.0 | 0.00 | 0.00 | 0.00 | 48 | 1014.3 |
| 20260901020045 | 89 | 152 | 1.0 | 9.0 | 0.00 | 0.00 | 0.00 | 49 | 1014.3 |
| 20260901015522 | 89 | 0 | 2.0 | 9.0 | 0.00 | 0.00 | 0.00 | 49 | 1014.3 |
| 20260901015025 | 89 | 0 | 1.0 | 4.0 | 0.00 | 0.00 | 0.00 | 49 | 1014.3 |
| 20260901014544 | 89 | 0 | 0.0 | 4.0 | 0.00 | 0.00 | 0.00 | 48 | 1014.2 |
| 20260901014024 | 89 | 0 | 0.0 | 4.0 | 0.00 | 0.00 | 0.00 | 48 | 1014.2 |
| 20260901013523 | 89 | 0 | 0.0 | 3.0 | 0.00 | 0.00 | 0.00 | 48 | 1014.1 |
| 20260901013055 | 90 | 0 | 0.0 | 3.0 | 0.00 | 0.00 | 0.00 | 47 | 1014.1 |
| 20260901012523 | 90 | 0 | 0.0 | 5.0 | 0.00 | 0.00 | 0.00 | 47 | 1014.0 |
| 20260901012023 | 90 | 0 | 0.0 | 5.0 | 0.00 | 0.00 | 0.00 | 47 | 1014.0 |
| 20260901011608 | 90 | 0 | 0.0 | 2.0 | 0.00 | 0.00 | 0.00 | 47 | 1013.9 |
| 20260901011026 | 91 | 0 | 0.0 | 5.0 | 0.00 | 0.00 | 0.00 | 47 | 1013.8 |
| 20260901010527 | 91 | 0 | 0.0 | 5.0 | 0.00 | 0.00 | 0.00 | 46 | 1013.8 |
| 20260901010046 | 91 | 0 | 0.0 | 4.0 | 0.00 | 0.00 | 0.00 | 46 | 1013.8 |
| 20260901005524 | 92 | 0 | 0.0 | 2.0 | 0.00 | 0.00 | 0.00 | 45 | 1013.8 |
| 20260901005027 | 92 | 0 | 0.0 | 3.0 | 0.00 | 0.00 | 0.00 | 45 | 1013.8 |
| 20260901004546 | 93 | 0 | 0.0 | 5.0 | 0.00 | 0.00 | 0.00 | 44 | 1013.7 |
| 20260901004026 | 93 | 142 | 0.0 | 5.0 | 0.00 | 0.00 | 0.00 | 44 | 1013.7 |
| 20260901003524 | 94 | 0 | 1.0 | 5.0 | 0.00 | 0.00 | 0.00 | 43 | 1013.7 |
| 20260901003052 | 94 | 153 | 0.0 | 3.0 | 0.00 | 0.00 | 0.00 | 43 | 1013.7 |
| 20260901002523 | 94 | 0 | 0.0 | 3.0 | 0.00 | 0.00 | 0.00 | 43 | 1013.7 |
| 20260901002027 | 95 | 0 | 1.0 | 3.0 | 0.00 | 0.00 | 0.00 | 42 | 1013.7 |
| 20260901001548 | 95 | 0 | 0.0 | 5.0 | 0.00 | 0.00 | 0.00 | 42 | 1013.8 |
| 20260901001027 | 95 | 0 | 1.0 | 5.0 | 0.00 | 0.00 | 0.00 | 41 | 1013.7 |
| 20260901000522 | 96 | 182 | 0.0 | 4.0 | 0.00 | 0.00 | 0.00 | 41 | 1013.7 |
| 20260901000045 | 96 | 0 | 0.0 | 5.0 | 0.00 | 0.00 | 0.00 | 41 | 1013.7 |
| 20260831235524 | 96 | 163 | 0.0 | 6.0 | 0.00 | 0.00 | 0.00 | 40 | 1013.8 |
| 20260831235025 | 96 | 0 | 1.0 | 8.0 | 0.00 | 0.00 | 0.00 | 40 | 1013.8 |
| 20260831234547 | 96 | 0 | 1.0 | 9.0 | 0.00 | 0.00 | 0.00 | 40 | 1013.8 |
| 20260831234026 | 96 | 199 | 2.0 | 10.0 | 0.00 | 0.00 | 0.00 | 39 | 1013.8 |
| 20260831233524 | 96 | 0 | 3.0 | 10.0 | 0.00 | 0.00 | 0.00 | 39 | 1013.8 |
| 20260831233048 | 97 | 153 | 4.0 | 10.0 | 0.00 | 0.00 | 0.00 | 39 | 1013.8 |
| 20260831232523 | 97 | 184 | 4.0 | 10.0 | 0.00 | 0.00 | 0.00 | 39 | 1013.7 |
| 20260831232024 | 97 | 144 | 3.0 | 10.0 | 0.00 | 0.00 | 0.00 | 40 | 1013.7 |
| 20260831231551 | 97 | 169 | 3.0 | 8.0 | 0.00 | 0.00 | 0.00 | 39 | 1013.8 |
| 20260831231024 | 97 | 0 | 2.0 | 10.0 | 0.00 | 0.00 | 0.00 | 39 | 1013.8 |
| 20260831230527 | 97 | 158 | 3.0 | 10.0 | 0.00 | 0.00 | 0.00 | 39 | 1013.8 |
| 20260831230053 | 97 | 178 | 2.0 | 8.0 | 0.00 | 0.00 | 0.00 | 39 | 1013.8 |
| 20260831225522 | 97 | 177 | 2.0 | 11.0 | 0.00 | 0.00 | 0.00 | 39 | 1013.7 |
| 20260831225027 | 98 | 148 | 3.0 | 11.0 | 0.00 | 0.00 | 0.00 | 38 | 1013.7 |
| 20260831224548 | 98 | 146 | 3.0 | 10.0 | 0.00 | 0.00 | 0.00 | 37 | 1013.6 |
| 20260831224025 | 99 | 0 | 1.0 | 10.0 | 0.00 | 0.00 | 0.00 | 37 | 1013.6 |
| 20260831223528 | 99 | 196 | 3.0 | 10.0 | 0.00 | 0.00 | 0.00 | 35 | 1013.6 |
| 20260831223047 | 99 | 175 | 3.0 | 15.0 | 0.00 | 0.00 | 0.00 | 35 | 1013.6 |
| 20260831222529 | 99 | 258 | 3.0 | 15.0 | 0.00 | 0.00 | 0.00 | 36 | 1013.6 |
| 20260831222026 | 99 | 163 | 3.0 | 12.0 | 0.00 | 0.00 | 0.00 | 35 | 1013.7 |
| 20260831221603 | 99 | 175 | 2.0 | 12.0 | 0.00 | 0.00 | 0.00 | 36 | 1013.7 |
| 20260831221025 | 99 | 186 | 1.0 | 11.0 | 0.00 | 0.00 | 0.00 | 37 | 1013.7 |
| 20260831220525 | 99 | 188 | 4.0 | 11.0 | 0.00 | 0.00 | 0.00 | 35 | 1013.8 |
| 20260831220047 | 100 | 140 | 3.0 | 9.0 | 0.00 | 0.00 | 0.00 | 35 | 1013.8 |
| 20260831215528 | 100 | 198 | 1.0 | 11.0 | 0.00 | 0.00 | 0.00 | 35 | 1013.8 |
| 20260831215023 | 100 | 176 | 5.0 | 11.0 | 0.00 | 0.00 | 0.00 | 36 | 1013.8 |
| 20260831214554 | 100 | 187 | 3.0 | 9.0 | 0.00 | 0.00 | 0.00 | 36 | 1013.8 |
| 20260831214025 | 101 | 200 | 2.0 | 7.0 | 0.00 | 0.00 | 0.00 | 36 | 1013.8 |
| 20260831213528 | 101 | 0 | 1.0 | 9.0 | 0.00 | 0.00 | 0.00 | 36 | 1013.7 |
| 20260831213045 | 100 | 275 | 1.0 | 11.0 | 0.00 | 0.00 | 0.00 | 36 | 1013.7 |
| 20260831212524 | 100 | 313 | 1.0 | 11.0 | 0.00 | 0.00 | 0.00 | 36 | 1013.8 |
| 20260831212028 | 101 | 285 | 2.0 | 10.0 | 0.00 | 0.00 | 0.00 | 35 | 1013.8 |
| 20260831211552 | 101 | 235 | 3.0 | 8.0 | 0.00 | 0.00 | 0.00 | 35 | 1013.8 |
| 20260831211022 | 100 | 316 | 1.0 | 8.0 | 0.00 | 0.00 | 0.00 | 35 | 1013.9 |
| 20260831210530 | 100 | 131 | 1.0 | 8.0 | 0.00 | 0.00 | 0.00 | 35 | 1013.8 |
| 20260831210048 | 100 | 324 | 2.0 | 12.0 | 0.00 | 0.00 | 0.00 | 35 | 1014.0 |
| 20260831205524 | 101 | 303 | 3.0 | 12.0 | 0.00 | 0.00 | 0.00 | 36 | 1014.1 |
| 20260831205026 | 101 | 128 | 2.0 | 6.0 | 0.00 | 0.00 | 0.00 | 36 | 1014.1 |
| 20260831204546 | 101 | 0 | 0.0 | 12.0 | 0.00 | 0.00 | 0.00 | 36 | 1014.1 |
| 20260831204026 | 101 | 319 | 1.0 | 12.0 | 0.00 | 0.00 | 0.00 | 35 | 1014.2 |
| 20260831203525 | 101 | 5 | 1.0 | 8.0 | 0.00 | 0.00 | 0.00 | 36 | 1014.1 |
| 20260831203108 | 100 | 113 | 3.0 | 8.0 | 0.00 | 0.00 | 0.00 | 35 | 1014.1 |
| 20260831202529 | 100 | 0 | 2.0 | 7.0 | 0.00 | 0.00 | 0.00 | 37 | 1014.2 |
| 20260831202029 | 100 | 297 | 2.0 | 7.0 | 0.00 | 0.00 | 0.00 | 37 | 1014.2 |
| 20260831201553 | 100 | 244 | 3.0 | 7.0 | 0.00 | 0.00 | 0.00 | 36 | 1014.3 |
| 20260831201024 | 100 | 0 | 2.0 | 9.0 | 0.00 | 0.00 | 0.00 | 36 | 1014.3 |
| 20260831200529 | 100 | 266 | 3.0 | 9.0 | 0.00 | 0.00 | 0.00 | 36 | 1014.3 |
| 20260831200053 | 100 | 176 | 2.0 | 9.0 | 0.00 | 0.00 | 0.00 | 37 | 1014.3 |
| 20260831195525 | 99 | 203 | 2.0 | 9.0 | 0.00 | 0.00 | 0.00 | 37 | 1014.4 |